• în România
  • Lista ţărilor
  • Pe 7 zile
  • Temperatura apei
  • Hartă satelitară
  • Meteo pe hartă
  • Widget-uri
  • user-avatar
    Intrare

    Meteo pe oră la Kstinkino

    Astăzi, 16 Iulie, Luni

    Timp Temperatura Precipitaţii Vânt Presiune Umiditate
    00:00 +19°C° 0 mm 1 m/s 744 mmHg 87%
    01:00 +19°C° 0 mm 1 m/s 744 mmHg 89%
    02:00 +18°C° 0 mm 1 m/s 744 mmHg 90%
    03:00 +19°C° 0 mm 1 m/s 744 mmHg 89%
    04:00 +19°C° 0 mm 1 m/s 744 mmHg 88%
    05:00 +20°C° 0 mm 1 m/s 744 mmHg 87%
    06:00 +21°C° 0 mm 2 m/s 744 mmHg 78%
    07:00 +24°C° 0 mm 2 m/s 744 mmHg 70%
    08:00 +25°C° 0 mm 2 m/s 745 mmHg 62%
    09:00 +27°C° 0 mm 2 m/s 744 mmHg 55%
    10:00 +28°C° 0 mm 3 m/s 744 mmHg 48%
    11:00 +29°C° 0 mm 3 m/s 744 mmHg 41%
    12:00 +30°C° 0 mm 4 m/s 744 mmHg 40%
    13:00 +30°C° 0 mm 4 m/s 744 mmHg 40%
    14:00 +30°C° 0 mm 4 m/s 744 mmHg 40%
    15:00 +30°C° 0 mm 3 m/s 744 mmHg 43%
    16:00 +29°C° 0 mm 3 m/s 743 mmHg 46%
    17:00 +29°C° 0 mm 3 m/s 743 mmHg 50%
    18:00 +27°C° 0 mm 3 m/s 743 mmHg 57%
    19:00 +25°C° 0 mm 2 m/s 743 mmHg 65%
    20:00 +23°C° 0 mm 2 m/s 744 mmHg 72%
    21:00 +21°C° 0 mm 2 m/s 744 mmHg 75%
    22:00 +20°C° 0 mm 2 m/s 744 mmHg 77%
    23:00 +19°C° 0 mm 2 m/s 744 mmHg 80%

    Mâine, 17 Iulie, Marţi

    Timp Temperatura Precipitaţii Vânt Presiune Umiditate
    00:00 +19°C° 0 mm 2 m/s 744 mmHg 82%
    01:00 +19°C° 0 mm 2 m/s 744 mmHg 83%
    02:00 +18°C° 0 mm 2 m/s 744 mmHg 85%
    03:00 +19°C° 0 mm 3 m/s 744 mmHg 83%
    04:00 +19°C° 0 mm 3 m/s 744 mmHg 80%
    05:00 +20°C° 0 mm 3 m/s 744 mmHg 77%
    06:00 +21°C° 0 mm 4 m/s 744 mmHg 70%
    07:00 +23°C° 0 mm 4 m/s 744 mmHg 64%
    08:00 +26°C° 0 mm 5 m/s 744 mmHg 57%
    09:00 +27°C° 0 mm 5 m/s 743 mmHg 53%
    10:00 +28°C° 0 mm 5 m/s 743 mmHg 49%
    11:00 +29°C° 0 mm 6 m/s 743 mmHg 46%
    12:00 +30°C° 0 mm 6 m/s 743 mmHg 45%
    13:00 +30°C° 0 mm 6 m/s 742 mmHg 44%
    14:00 +30°C° 0 mm 6 m/s 742 mmHg 43%
    15:00 +30°C° 0 mm 6 m/s 742 mmHg 46%
    16:00 +29°C° 0 mm 5 m/s 742 mmHg 49%
    17:00 +29°C° 0 mm 5 m/s 742 mmHg 52%
    18:00 +27°C° 0 mm 4 m/s 742 mmHg 57%
    19:00 +26°C° 0 mm 4 m/s 742 mmHg 63%
    20:00 +23°C° 0 mm 4 m/s 742 mmHg 69%
    21:00 +23°C° 0 mm 4 m/s 742 mmHg 71%
    22:00 +22°C° 0 mm 4 m/s 742 mmHg 74%
    23:00 +22°C° 0 mm 4 m/s 742 mmHg 77%

    Poimâine, 18 Iulie, Miercuri

    Timp Temperatura Precipitaţii Vânt Presiune Umiditate
    00:00 +21°C° 0 mm 4 m/s 742 mmHg 79%
    01:00 +21°C° 0 mm 4 m/s 742 mmHg 80%
    02:00 +20°C° 0 mm 4 m/s 742 mmHg 82%
    03:00 +20°C° 0 mm 4 m/s 742 mmHg 81%
    04:00 +20°C° 0 mm 4 m/s 742 mmHg 80%
    05:00 +20°C° 0 mm 4 m/s 742 mmHg 79%
    06:00 +21°C° 0 mm 5 m/s 742 mmHg 74%
    07:00 +23°C° 0 mm 5 m/s 742 mmHg 69%
    08:00 +25°C° 0 mm 5 m/s 742 mmHg 64%
    09:00 +26°C° 0 mm 5 m/s 742 mmHg 59%
    10:00 +27°C° 0 mm 5 m/s 742 mmHg 54%
    11:00 +29°C° 0 mm 6 m/s 742 mmHg 49%
    12:00 +29°C° 0 mm 6 m/s 742 mmHg 48%
    13:00 +29°C° 0 mm 6 m/s 742 mmHg 47%
    14:00 +30°C° 0 mm 6 m/s 741 mmHg 46%
    15:00 +29°C° 0,1 mm 5 m/s 741 mmHg 50%
    16:00 +28°C° 0,1 mm 5 m/s 741 mmHg 55%
    17:00 +27°C° 0,1 mm 5 m/s 742 mmHg 60%
    18:00 +26°C° 0,1 mm 4 m/s 742 mmHg 66%
    19:00 +23°C° 0,1 mm 4 m/s 742 mmHg 72%
    20:00 +21°C° 0,1 mm 3 m/s 742 mmHg 78%
    21:00 +21°C° 0 mm 3 m/s 742 mmHg 80%
    22:00 +20°C° 0 mm 3 m/s 742 mmHg 82%
    23:00 +19°C° 0 mm 3 m/s 742 mmHg 84%

    19 Iulie, Joi

    Timp Temperatura Precipitaţii Vânt Presiune Umiditate
    00:00 +19°C° 0,1 mm 3 m/s 742 mmHg 84%
    01:00 +19°C° 0,1 mm 3 m/s 742 mmHg 84%
    02:00 +18°C° 0,1 mm 4 m/s 741 mmHg 84%
    03:00 +18°C° 1,2 mm 4 m/s 741 mmHg 88%
    04:00 +18°C° 1,2 mm 4 m/s 741 mmHg 91%
    05:00 +17°C° 1,2 mm 4 m/s 741 mmHg 94%
    06:00 +18°C° 0,6 mm 4 m/s 741 mmHg 94%
    07:00 +18°C° 0,6 mm 4 m/s 741 mmHg 94%
    08:00 +18°C° 0,6 mm 4 m/s 741 mmHg 94%
    09:00 +19°C° 0,1 mm 4 m/s 742 mmHg 93%
    10:00 +19°C° 0,1 mm 4 m/s 742 mmHg 93%
    11:00 +20°C° 0,1 mm 3 m/s 742 mmHg 92%
    12:00 +21°C° 0 mm 3 m/s 742 mmHg 88%
    13:00 +21°C° 0 mm 3 m/s 742 mmHg 85%
    14:00 +22°C° 0 mm 3 m/s 742 mmHg 81%
    15:00 +24°C° 0 mm 3 m/s 742 mmHg 79%
    16:00 +24°C° 0 mm 3 m/s 742 mmHg 77%
    17:00 +25°C° 0 mm 3 m/s 742 mmHg 76%
    18:00 +24°C° 0 mm 3 m/s 742 mmHg 81%
    19:00 +23°C° 0 mm 2 m/s 742 mmHg 86%
    20:00 +21°C° 0 mm 2 m/s 742 mmHg 91%
    21:00 +20°C° 0,1 mm 2 m/s 742 mmHg 93%
    22:00 +20°C° 0,1 mm 2 m/s 742 mmHg 95%
    23:00 +19°C° 0,1 mm 2 m/s 742 mmHg 98%

    20 Iulie, Vineri

    Timp Temperatura Precipitaţii Vânt Presiune Umiditate
    00:00 +19°C° 0 mm 2 m/s 742 mmHg 98%
    01:00 +19°C° 0 mm 2 m/s 742 mmHg 98%
    02:00 +18°C° 0 mm 2 m/s 742 mmHg 98%
    03:00 +19°C° 0 mm 2 m/s 742 mmHg 98%
    04:00 +19°C° 0 mm 2 m/s 742 mmHg 97%
    05:00 +19°C° 0 mm 2 m/s 742 mmHg 96%
    06:00 +20°C° 0 mm 2 m/s 742 mmHg 92%
    07:00 +21°C° 0 mm 2 m/s 742 mmHg 87%
    08:00 +22°C° 0 mm 3 m/s 743 mmHg 83%
    09:00 +24°C° 0,6 mm 3 m/s 743 mmHg 82%
    10:00 +25°C° 0,6 mm 3 m/s 743 mmHg 80%
    11:00 +26°C° 0,6 mm 3 m/s 743 mmHg 79%
    12:00 +26°C° 0,4 mm 3 m/s 742 mmHg 74%
    13:00 +27°C° 0,4 mm 3 m/s 742 mmHg 69%
    14:00 +28°C° 0,4 mm 4 m/s 742 mmHg 64%
    15:00 +28°C° 0,2 mm 3 m/s 742 mmHg 66%
    16:00 +28°C° 0,2 mm 3 m/s 742 mmHg 67%
    17:00 +27°C° 0,2 mm 3 m/s 742 mmHg 69%
    18:00 +26°C° 0,1 mm 3 m/s 742 mmHg 75%
    19:00 +24°C° 0,1 mm 2 m/s 742 mmHg 81%
    20:00 +23°C° 0,1 mm 2 m/s 741 mmHg 87%
    21:00 +21°C° 0,1 mm 2 m/s 741 mmHg 90%
    22:00 +21°C° 0,1 mm 2 m/s 741 mmHg 93%
    23:00 +20°C° 0,1 mm 2 m/s 741 mmHg 96%

    21 Iulie, Sâmbătă

    Timp Temperatura Precipitaţii Vânt Presiune Umiditate
    00:00 +20°C° 0,4 mm 2 m/s 741 mmHg 96%
    01:00 +20°C° 0,4 mm 2 m/s 741 mmHg 96%
    02:00 +20°C° 0,4 mm 2 m/s 741 mmHg 97%
    03:00 +20°C° 0,1 mm 2 m/s 741 mmHg 96%
    04:00 +20°C° 0,1 mm 3 m/s 741 mmHg 96%
    05:00 +21°C° 0,1 mm 3 m/s 741 mmHg 95%
    06:00 +22°C° 0,1 mm 3 m/s 742 mmHg 93%
    07:00 +22°C° 0,1 mm 3 m/s 742 mmHg 90%
    08:00 +24°C° 0,1 mm 3 m/s 742 mmHg 87%
    09:00 +26°C° 0,9 mm 3 m/s 742 mmHg 82%
    10:00 +27°C° 0,9 mm 3 m/s 742 mmHg 78%
    11:00 +28°C° 0,9 mm 3 m/s 742 mmHg 73%
    12:00 +29°C° 0,2 mm 3 m/s 742 mmHg 69%
    13:00 +30°C° 0,2 mm 3 m/s 742 mmHg 65%
    14:00 +30°C° 0,2 mm 3 m/s 742 mmHg 61%
    15:00 +30°C° 0,2 mm 3 m/s 742 mmHg 63%
    16:00 +29°C° 0,2 mm 3 m/s 742 mmHg 65%
    17:00 +29°C° 0,2 mm 3 m/s 742 mmHg 68%
    18:00 +28°C° 0,1 mm 3 m/s 742 mmHg 74%
    19:00 +26°C° 0,1 mm 2 m/s 742 mmHg 80%
    20:00 +25°C° 0,1 mm 2 m/s 742 mmHg 86%
    21:00 +24°C° 1,2 mm 2 m/s 742 mmHg 88%
    22:00 +23°C° 1,2 mm 2 m/s 742 mmHg 91%
    23:00 +21°C° 1,2 mm 2 m/s 742 mmHg 94%
    Arată mai mult